AUR56H EGJB-EGHI

Flight info

Callsign AUR56H
Flight time 0h 23m
Altitude 13000
Route ORTAC Q41 THRED
Aircraft E170/M-SDE3GILORVW/S

Departure

Time 2026-05-09 11:56
Airport Guernsey Airport (EGJB)

Arrival

Time 2026-05-09 12:20
Airport Southampton Airport (EGHI)
Time Latitude Longitude Altitude Speed Heading
2026-05-09 11:40 49.43254 -2.59622 330 ft 0 kts 178°
2026-05-09 11:49 49.43253 -2.59622 330 ft 0 kts 178°
2026-05-09 11:49 49.43262 -2.59622 330 ft 2 kts 178°
2026-05-09 11:49 49.43277 -2.59623 330 ft 2 kts 178°
2026-05-09 11:50 49.43292 -2.59623 329 ft 2 kts 178°
2026-05-09 11:50 49.43307 -2.59624 329 ft 2 kts 178°
2026-05-09 11:50 49.43322 -2.59625 329 ft 2 kts 179°
2026-05-09 11:50 49.43338 -2.59625 329 ft 2 kts 189°
2026-05-09 11:51 49.43351 -2.59616 329 ft 2 kts 219°
2026-05-09 11:51 49.43361 -2.59598 330 ft 2 kts 248°
2026-05-09 11:51 49.43363 -2.59580 330 ft 1 kts 268°
2026-05-09 11:51 49.43363 -2.59579 330 ft 0 kts 268°
2026-05-09 11:53 49.43362 -2.59608 329 ft 4 kts 268°
2026-05-09 11:53 49.43361 -2.59677 328 ft 8 kts 267°
2026-05-09 11:53 49.43348 -2.59781 326 ft 11 kts 256°
2026-05-09 11:53 49.43343 -2.59924 323 ft 15 kts 268°
2026-05-09 11:54 49.43338 -2.60109 317 ft 20 kts 268°
2026-05-09 11:54 49.43332 -2.60353 308 ft 25 kts 267°
2026-05-09 11:54 49.43328 -2.60659 299 ft 30 kts 281°
2026-05-09 11:54 49.43363 -2.60990 295 ft 32 kts 269°
2026-05-09 11:55 49.43357 -2.61234 295 ft 9 kts 276°
2026-05-09 11:56 49.43519 -2.59473 357 ft 145 kts 87°
2026-05-09 11:56 49.43553 -2.57863 923 ft 158 kts 88°
2026-05-09 11:56 49.43572 -2.56212 1772 ft 157 kts 88°
2026-05-09 11:57 49.43700 -2.54509 2287 ft 175 kts 65°
2026-05-09 11:57 49.44642 -2.53208 2792 ft 202 kts 27°
2026-05-09 11:57 49.45993 -2.52417 3473 ft 213 kts 25°
2026-05-09 11:57 49.47465 -2.51582 3827 ft 240 kts 24°
2026-05-09 11:58 49.49060 -2.50693 3990 ft 252 kts 23°
2026-05-09 11:58 49.50700 -2.49471 4295 ft 265 kts 32°
2026-05-09 11:58 49.52306 -2.48095 4945 ft 268 kts 32°
2026-05-09 11:58 49.53922 -2.46742 5685 ft 267 kts 31°
2026-05-09 11:59 49.55543 -2.45401 6407 ft 268 kts 31°
2026-05-09 11:59 49.57191 -2.44043 7070 ft 272 kts 31°
2026-05-09 11:59 49.58864 -2.42668 7720 ft 276 kts 31°
2026-05-09 11:59 49.60561 -2.41274 8364 ft 281 kts 30°
2026-05-09 12:00 49.62290 -2.39853 9033 ft 285 kts 31°
2026-05-09 12:00 49.64043 -2.38412 9739 ft 288 kts 30°
2026-05-09 12:00 49.65795 -2.36971 10422 ft 292 kts 30°
2026-05-09 12:00 49.67606 -2.35480 11035 ft 300 kts 30°
2026-05-09 12:01 49.69481 -2.33935 11575 ft 310 kts 31°
2026-05-09 12:01 49.71392 -2.32359 12086 ft 321 kts 31°
2026-05-09 12:01 49.73386 -2.30713 12662 ft 330 kts 31°
2026-05-09 12:01 49.75397 -2.29051 12984 ft 330 kts 31°
2026-05-09 12:02 49.77484 -2.27325 13042 ft 351 kts 30°
2026-05-09 12:02 49.79679 -2.25509 13034 ft 354 kts 30°
2026-05-09 12:02 49.81823 -2.23732 13027 ft 354 kts 30°
2026-05-09 12:02 49.84002 -2.21925 13029 ft 354 kts 30°
2026-05-09 12:03 49.86168 -2.20126 13051 ft 355 kts 30°
2026-05-09 12:03 49.88329 -2.18330 13024 ft 354 kts 30°
2026-05-09 12:03 49.90512 -2.16513 13048 ft 354 kts 30°
2026-05-09 12:03 49.92654 -2.14729 13043 ft 354 kts 30°
2026-05-09 12:04 49.94825 -2.12919 13050 ft 353 kts 30°
2026-05-09 12:04 49.96985 -2.11116 13044 ft 353 kts 30°
2026-05-09 12:04 49.99146 -2.09311 13042 ft 354 kts 30°
2026-05-09 12:04 50.01307 -2.07503 13037 ft 353 kts 30°
2026-05-09 12:05 50.03490 -2.05675 13059 ft 354 kts 30°
2026-05-09 12:05 50.05627 -2.03884 13035 ft 353 kts 30°
2026-05-09 12:05 50.07781 -2.02077 13044 ft 354 kts 30°
2026-05-09 12:05 50.09929 -2.00272 13045 ft 345 kts 30°
2026-05-09 12:06 50.12027 -1.98509 13043 ft 341 kts 30°
2026-05-09 12:06 50.14109 -1.96757 13036 ft 342 kts 30°
2026-05-09 12:06 50.16201 -1.94994 13043 ft 343 kts 30°
2026-05-09 12:06 50.18293 -1.93231 12735 ft 343 kts 30°
2026-05-09 12:07 50.20388 -1.91462 12355 ft 339 kts 30°
2026-05-09 12:07 50.22434 -1.89734 11981 ft 335 kts 30°
2026-05-09 12:07 50.24477 -1.88007 11604 ft 329 kts 30°
2026-05-09 12:07 50.26434 -1.86349 11250 ft 321 kts 30°
2026-05-09 12:08 50.28381 -1.84700 10898 ft 311 kts 30°
2026-05-09 12:08 50.30249 -1.83116 10566 ft 302 kts 30°
2026-05-09 12:08 50.32053 -1.81585 10232 ft 295 kts 30°
2026-05-09 12:08 50.33831 -1.80074 9913 ft 287 kts 30°
2026-05-09 12:09 50.35569 -1.78596 9602 ft 283 kts 30°
2026-05-09 12:09 50.37283 -1.77137 9289 ft 277 kts 30°
2026-05-09 12:09 50.38923 -1.75741 8984 ft 266 kts 30°
2026-05-09 12:10 50.43537 -1.71806 8147 ft 239 kts 31°
2026-05-09 12:10 50.44976 -1.70577 7899 ft 231 kts 31°
2026-05-09 12:10 50.46361 -1.69393 7650 ft 228 kts 31°
2026-05-09 12:11 50.47749 -1.68205 7402 ft 228 kts 31°
2026-05-09 12:11 50.49140 -1.67014 7168 ft 228 kts 31°
2026-05-09 12:11 50.50552 -1.65918 7063 ft 226 kts 26°
2026-05-09 12:11 50.52000 -1.64916 7058 ft 227 kts 26°
2026-05-09 12:12 50.53444 -1.63917 7045 ft 228 kts 26°
2026-05-09 12:12 50.54902 -1.62908 7049 ft 229 kts 26°
2026-05-09 12:12 50.56355 -1.61901 7132 ft 228 kts 26°
2026-05-09 12:12 50.57809 -1.60939 7486 ft 229 kts 25°
2026-05-09 12:13 50.59282 -1.59966 7862 ft 232 kts 25°
2026-05-09 12:13 50.60778 -1.58972 8220 ft 235 kts 25°
2026-05-09 12:13 50.62277 -1.57970 8576 ft 236 kts 25°
2026-05-09 12:13 50.63785 -1.56957 8930 ft 238 kts 25°
2026-05-09 12:14 50.65330 -1.55911 9121 ft 243 kts 25°
2026-05-09 12:14 50.66901 -1.54840 8530 ft 251 kts 25°
2026-05-09 12:14 50.68496 -1.53692 7979 ft 253 kts 27°
2026-05-09 12:14 50.70052 -1.52490 7488 ft 253 kts 28°
2026-05-09 12:15 50.71623 -1.51262 7142 ft 247 kts 28°
2026-05-09 12:15 50.73128 -1.50089 6791 ft 242 kts 28°
2026-05-09 12:15 50.74624 -1.48937 6424 ft 239 kts 28°
2026-05-09 12:15 50.76100 -1.47804 6071 ft 236 kts 28°
2026-05-09 12:16 50.77572 -1.46677 5662 ft 234 kts 28°
2026-05-09 12:16 50.79022 -1.45566 5283 ft 229 kts 28°
2026-05-09 12:16 50.80446 -1.44471 4842 ft 228 kts 28°
2026-05-09 12:16 50.81833 -1.43407 4450 ft 219 kts 28°
2026-05-09 12:17 50.83206 -1.42482 4015 ft 208 kts 24°
2026-05-09 12:17 50.84503 -1.41682 3483 ft 195 kts 24°
2026-05-09 12:17 50.85741 -1.40978 2928 ft 188 kts 20°
2026-05-09 12:17 50.86974 -1.40419 2334 ft 182 kts 21°
2026-05-09 12:18 50.88029 -1.39780 2210 ft 151 kts 26°
2026-05-09 12:18 50.88980 -1.39145 1781 ft 146 kts 27°
2026-05-09 12:18 50.89917 -1.38566 1306 ft 146 kts 22°
2026-05-09 12:18 50.90839 -1.38017 983 ft 139 kts 23°
2026-05-09 12:19 50.91758 -1.37507 681 ft 141 kts 23°
2026-05-09 12:19 50.92670 -1.37001 412 ft 136 kts 21°
2026-05-09 12:19 50.93520 -1.36517 225 ft 123 kts 20°
2026-05-09 12:19 50.94372 -1.36045 72 ft 131 kts 21°
2026-05-09 12:20 50.95126 -1.35623 41 ft 92 kts 18°
2026-05-09 12:20 50.95526 -1.35403 42 ft 48 kts 23°
2026-05-09 12:20 50.95680 -1.35331 44 ft 1 kts 28°
2026-05-09 12:20 50.95673 -1.35319 44 ft 3 kts 175°
2026-05-09 12:21 50.95629 -1.35341 44 ft 11 kts 200°
2026-05-09 12:21 50.95525 -1.35401 42 ft 20 kts 199°
2026-05-09 12:21 50.95362 -1.35493 41 ft 28 kts 201°
2026-05-09 12:21 50.95150 -1.35607 41 ft 35 kts 199°
2026-05-09 12:22 50.95030 -1.35761 44 ft 17 kts 279°
2026-05-09 12:22 50.95054 -1.35902 44 ft 9 kts 271°
2026-05-09 12:22 50.95070 -1.35985 44 ft 2 kts 289°
2026-05-09 12:22 50.95073 -1.36003 44 ft 0 kts 290°